Location: SBMNH
(34.4407°N, 119.7157°W)
Time: 15:53:51
(UTC-07:00)

Envisat - Visible Passes

Search period start: 08 August 2022 00:00
Search period end: 18 August 2022 00:00
Orbit: 763 x 765 km, 98.2° (Epoch: 08 August)

Date Brightness Start Highest point End Pass type
(mag) Time Alt. Az. Time Alt. Az. Time Alt. Az.
08 Aug 3.3 05:13:36 10° NNE 05:18:40 69° ESE 05:23:42 10° S visible
09 Aug 4.9 04:37:16 10° NE 04:41:37 28° E 04:45:57 10° SSE visible
10 Aug 5.8 04:02:47 10° ENE 04:04:23 11° E 04:05:59 10° ESE visible
10 Aug 3.0 05:38:44 10° N 05:43:46 65° WNW 05:48:46 10° SSW visible
11 Aug 3.8 05:01:53 10° NNE 05:06:51 52° E 05:11:46 10° S visible
12 Aug 5.2 04:25:52 10° NE 04:29:44 22° E 04:33:35 10° SE visible
13 Aug 3.0 05:26:53 10° N 05:31:59 85° WNW 05:37:03 10° SSW visible
14 Aug 4.3 04:50:15 10° NNE 04:55:00 39° E 04:59:44 10° SSE visible
15 Aug 5.6 04:14:41 10° NE 04:17:51 16° E 04:20:59 10° SE visible
15 Aug 3.4 05:52:11 10° N 05:57:02 46° WNW 06:01:51 10° SW visible
16 Aug 3.2 05:15:06 10° NNE 05:20:10 73° E 05:25:14 10° S visible
17 Aug 4.8 04:38:42 10° NE 04:43:09 30° E 04:47:33 10° SSE visible
